Home   Weather   Słupsk   Past weeks

Flag for Poland Past Weather in Słupsk, Poland — Yesterday and Last 2 Weeks

43 °F


Feels Like: 40 °F
Forecast: 43 / 49 °F
Wind: 5 mph from East

Location: Leba

Current Time: Oct 21, 2016 at 10:15:34 PM

Latest Report: Oct 21, 2016 at 9:00 PM

Visibility: 2 mi

Pressure: 30.05 "Hg

Humidity: 92%

Dew Point: 41 °F

Location of SłupskLocation

Past Weather in Słupsk — Graph


Słupsk Temperature Yesterday

Maximum temperature yesterday: 52 °F (at 12:00 PM)
Minimum temperature yesterday: 42 °F (at 8:00 AM)
Average temperature yesterday: 47 °F

High & Low Weather Summary for the Past Weeks

High53 °F (Oct 19, 2:00 PM)98% (Oct 10, 10:00 AM)30.48 "Hg (Oct 10, 10:00 AM)
Low35 °F (Oct 17, 6:00 AM)57% (Oct 14, 1:00 PM)29.98 "Hg (Oct 19, 4:00 PM)
Average46 °F86%30.21 "Hg
* Reported Oct 6 9:00 PM — Oct 21 9:00 PM, Słupsk, Weather by CustomWeather, © 2016

Note: Actual official high and low records may vary slightly from our data, if they occured in-between our weather recording intervals... More about our weather records


Słupsk Weather History for the Previous 24 Hours

Scroll right to see more
Time TempWeatherWind HumidityBarometerVisibility
9:00 PM
Fri, Oct 21
43 °FFog.5 mph92%30.05 "Hg2 mi
8:00 PM44 °FFog.3 mph91%30.05 "Hg2 mi
7:00 PM44 °FFog.3 mph91%30.06 "Hg3 mi
6:00 PM44 °FFog.5 mph91%30.05 "Hg3 mi
5:00 PM45 °FFog.3 mph88%30.05 "Hg5 mi
4:00 PM46 °FOvercast.6 mph84%30.05 "Hg9 mi
3:00 PM45 °FOvercast.6 mph84%30.04 "Hg8 mi
2:00 PM45 °FOvercast.5 mph86%30.04 "Hg9 mi
1:00 PM46 °FOvercast.7 mph88%30.04 "Hg8 mi
11:00 AM44 °FFog.6 mph91%30.03 "Hg6 mi
10:00 AM43 °FFog.5 mph93%30.02 "Hg5 mi
9:00 AM43 °FLow clouds.6 mph93%30.02 "Hg6 mi
7:00 AM42 °FOvercast.5 mph94%30.01 "Hg5 mi
6:00 AM43 °FLight rain. Overcast.5 mph94%30.00 "Hg5 mi
5:00 AM43 °FLight rain. Overcast.5 mph94%30.01 "Hg5 mi
4:00 AM44 °FLight rain. Overcast.5 mph94%30.01 "Hg6 mi
3:00 AM44 °FLight rain. Overcast.6 mph94%30.02 "Hg4 mi
2:00 AM45 °FLight rain. Overcast.6 mph94%30.03 "Hg6 mi
11:00 PM
Thu, Oct 20
46 °FLight rain. Overcast.5 mph94%30.05 "Hg4 mi
10:00 PM46 °FLight rain. Overcast.5 mph94%30.05 "Hg4 mi
Weather by CustomWeather, © 2016

See weather overviewHow to use our weather pages